This is the latest recevied weather packets stored in our database for station/object KD2VWU. If no packets are shown the sender has not sent any weather packets the latest 1 day(s).
| Time | Temp. | Humidity | Pressure | Rain* | Wind** | Luminosity | Snow |
|---|---|---|---|---|---|---|---|
| 1778038385 | 17.78° C | 72% | 1007.3 hPa | 0 mm | 0 m/s | - | - |
| 1778038082 | 17.78° C | 72% | 1007.1 hPa | 0 mm | 0 m/s | - | - |
| 1778037779 | 18.33° C | 71% | 1007.3 hPa | 0 mm | 0 m/s | - | - |
| 1778037475 | 18.33° C | 70% | 1007.1 hPa | 0 mm | 0.89 m/s, 258° | - | - |
| 1778037173 | 18.33° C | 70% | 1006.9 hPa | 0 mm | 0.45 m/s, 287° | - | - |
| 1778036871 | 18.33° C | 70% | 1007.1 hPa | 0 mm | 0 m/s | - | - |
| 1778036569 | 18.89° C | 70% | 1007 hPa | 0 mm | 0.89 m/s, 93° | - | - |
| 1778036265 | 18.33° C | 70% | 1007.1 hPa | 0 mm | 0.45 m/s, 185° | - | - |
| 1778035961 | 18.33° C | 70% | 1007 hPa | 0 mm | 0.89 m/s, 66° | - | - |
| 1778035659 | 18.89° C | 70% | 1006.9 hPa | 0 mm | 0 m/s | - | - |
| 1778035355 | 18.33° C | 68% | 1007 hPa | 0 mm | 0.45 m/s, 236° | - | - |
| 1778035051 | 18.33° C | 70% | 1007.1 hPa | 0 mm | 0.45 m/s, 161° | - | - |
| 1778034749 | 18.33° C | 69% | 1007.1 hPa | 0 mm | 0.45 m/s, 193° | - | - |
| 1778034445 | 17.78° C | 70% | 1007 hPa | 0 mm | 1.34 m/s, 201° | - | - |
| 1778034143 | 18.33° C | 70% | 1007.1 hPa | 0 mm | 0 m/s | - | - |
| 1778033841 | 17.78° C | 71% | 1007.1 hPa | 0 mm | 0.45 m/s, 161° | - | - |
| 1778033538 | 17.78° C | 71% | 1007 hPa | 0 mm | 0.45 m/s, 245° | - | - |
| 1778033234 | 17.78° C | 71% | 1006.8 hPa | 0 mm | 0 m/s | - | - |
| 1778032933 | 17.78° C | 71% | 1006.8 hPa | 0 mm | 1.34 m/s, 264° | - | - |
| 1778032630 | 17.78° C | 71% | 1007 hPa | 0 mm | 0 m/s | - | - |
| 1778032327 | 17.78° C | 72% | 1006.8 hPa | 0 mm | 0.45 m/s, 129° | - | - |
| 1778032024 | 17.78° C | 70% | 1006.8 hPa | 0 mm | 0.89 m/s, 278° | - | - |
| 1778031720 | 18.33° C | 70% | 1006.7 hPa | 0 mm | 0 m/s | - | - |
| 1778031418 | 17.78° C | 70% | 1006.7 hPa | 0 mm | 0 m/s | - | - |
| 1778031115 | 17.78° C | 70% | 1006.7 hPa | 0 mm | 1.34 m/s, 255° | - | - |
* Rain latest hour (hover to see other rain measurements)
** Current wind speed in m/s (hover to see current wind gust speed)